Flag for France Weather past 2 weeks in Besançon, France

Now
70 °F

Light rain. Overcast.


Feels Like: 70 °F
Forecast: 63 / 79 °F
Wind: 9 mph from North

Location: Dole Tavaux

Current Time: Jul 22, 2014 at 10:21:43 PM

Latest Report: Jul 22, 2014 at 6:30 PM


Visibility: N/A

Pressure: 30.01 "Hg

Humidity: 83%

Dew point: 64 °F

Location of BesançonLocation

Historic Weather in Besançon — Graph

°F

Besançon temperature yesterday

Maximum temperature yesterday: 72 °F (at 7:00 PM)
Minimum temperature yesterday: 61 °F (at 12:00 AM)
Average temperature yesterday: 65 °F

Past Weeks' High & Low Weather Summary

 TemperatureHumidityPressure
High93 °F (Jul 18, 5:30 PM)100% (Jul 10, 4:30 AM)30.18 "Hg (Jul 10, 4:30 AM)
Low50 °F (Jul 15, 5:30 AM)27% (Jul 17, 3:30 PM)29.83 "Hg (Jul 10, 4:30 AM)
Average66 °F78%30.00 "Hg
* Reported Jul 7 6:00 PM — Jul 22 6:30 PM, Besançon, Weather by CustomWeather, © 2014

Note: Actual official high and low records may vary slightly from our data, if they occured in-between our weather recording intervals... More about our weather records

Advertising

Besançon weather history for previous 24 hours

 ConditionsComfort  
Time TempWeatherWind HumidityBarometerVisibility
6:30 PM
Jul 22
70 °FLight rain. Overcast.9 mph83%30.01 "HgN/A
6:00 PM68 °FOvercast.9 mph88%29.98 "HgN/A
5:30 PM68 °FOvercast.10 mph88%30.01 "HgN/A
5:00 PM68 °FMostly cloudy.8 mph88%30.01 "HgN/A
4:30 PM66 °FLight rain. Partly sunny.7 mph94%30.01 "Hg6 mi
4:00 PM66 °FLight rain. Fog.9 mph94%30.01 "Hg2 mi
3:30 PM66 °FLight rain. Fog.7 mph88%30.01 "Hg2 mi
3:00 PM66 °FOvercast.9 mph88%30.01 "Hg6 mi
2:30 PM68 °FOvercast.12 mph83%30.01 "HgN/A
2:00 PM68 °FOvercast.8 mph83%30.01 "HgN/A
1:30 PM66 °FLight rain. Overcast.7 mph88%30.01 "HgN/A
1:00 PM66 °FOvercast.5 mph88%30.01 "HgN/A
12:30 PM66 °FOvercast.3 mph88%30.04 "HgN/A
12:00 PM64 °FMostly cloudy.3 mph88%30.04 "HgN/A
11:30 AM64 °FOvercast.3 mph88%30.04 "HgN/A
11:00 AM64 °FMostly cloudy.3 mph88%30.04 "HgN/A
10:30 AM63 °FMostly cloudy.3 mph94%30.04 "HgN/A
10:00 AM63 °FDrizzle. Low clouds.5 mph94%30.01 "HgN/A
9:30 AM63 °FDrizzle. Mostly cloudy.5 mph94%30.01 "Hg4 mi
9:00 AM63 °FDrizzle. Mostly cloudy.8 mph94%30.01 "Hg4 mi
8:30 AM63 °FDrizzle. Overcast.6 mph88%30.01 "Hg4 mi
8:00 AM64 °FOvercast.7 mph83%30.01 "HgN/A
7:30 AM63 °FMostly cloudy.6 mph88%30.01 "HgN/A
7:00 AM63 °FLight rain. Partly cloudy.7 mph83%30.01 "HgN/A
6:30 AM63 °FOvercast.6 mph83%30.01 "HgN/A
6:00 AM63 °FOvercast.6 mph83%30.01 "HgN/A
5:30 AM63 °FOvercast.9 mph88%30.01 "HgN/A
5:00 AM63 °FPassing clouds.8 mph88%30.01 "HgN/A
4:30 AM64 °FMostly cloudy.7 mph83%30.01 "HgN/A
4:00 AM64 °FOvercast.9 mph83%30.01 "HgN/A
3:30 AM64 °FMostly cloudy.10 mph83%30.01 "HgN/A
3:00 AM64 °FClear.10 mph88%30.01 "HgN/A
2:30 AM66 °FMostly cloudy.12 mph88%30.01 "HgN/A
2:00 AM66 °FMostly cloudy.9 mph88%30.01 "HgN/A
1:30 AM66 °FOvercast.9 mph88%30.01 "HgN/A
1:00 AM66 °FClear.6 mph88%30.01 "HgN/A
12:30 AM66 °FMostly cloudy.6 mph88%30.01 "HgN/A
12:00 AM66 °FMild.5 mph88%30.01 "HgN/A
11:30 PM
Jul 21
66 °FPassing clouds.3 mph88%30.01 "HgN/A
11:00 PM68 °FBroken clouds.5 mph83%30.01 "HgN/A
10:30 PM68 °FBroken clouds.5 mph78%30.01 "HgN/A
10:00 PM68 °FBroken clouds.3 mph83%30.01 "HgN/A
Weather by CustomWeather, © 2014

See weather overviewHow to use our weather pages